Printer-friendly version

IAU Minor Planet Center

Minor Planet Center

MPEC 2001-N06: 2000 QU7

The following Minor Planet Electronic Circular may be linked-to from your own Web pages, but must not otherwise be redistributed electronically.


Read MPEC 2001-N05 Read MPEC 2001-N07


M.P.E.C. 2001-N06                                Issued 2001 July 2, 15:19 UT

     The Minor Planet Electronic Circulars contain information on unusual
         minor planets and routine data on comets.  They are published
   on behalf of Commission 20 of the International Astronomical Union by the
          Minor Planet Center, Smithsonian Astrophysical Observatory,
                          Cambridge, MA 02138, U.S.A.

             Prepared using the Tamkin Foundation Computer Network

                              MPC@CFA.HARVARD.EDU
          URL http://cfa-www.harvard.edu/iau/mpc.html  ISSN 1523-6714

                                   2000 QU7

                           Revision to MPEC 2000-Q30

Observations:
     K00Q07U 1 1994 04 02.45176 10 01 43.14 -01 35 27.1                      413
     K00Q07U 1 1994 04 02.49343 10 01 42.43 -01 35 46.0                      413
     K00Q07U 1 1994 04 05.38678 10 01 17.83 -01 56 16.0                      413
     K00Q07U 1 1994 04 05.42845 10 01 17.51 -01 56 32.0                      413

Observer details:
413 Siding Spring.  Trail located and measured by R. H. McNaught and
    DANEOPS (A. Gnadig).  1.2-m Schmidt.

First and last observations above in comparison with prediction:
Residuals in seconds of arc, reference and Delta-T
940402 413 91.8- 73.1+    940405 413 86.2- 68.6+    MPO 12243   +0.00007 day

Orbital elements:
2000 QU7
Epoch 2001 Apr. 1.0 TT = JDT 2452000.5                  Spahr
M  42.75987              (2000.0)            P               Q
n   0.28613582     Peri.   87.17520     +0.36505535     -0.92170447
a   2.2808037      Node   339.81364     +0.62898093     +0.34802030
e   0.6480969      Incl.   22.33423     +0.68638006     +0.17129724
P   3.44           H   18.2           G   0.15           U   1
Residuals in seconds of arc
940402 413  0.2+  0.4+    000826 704  0.1-  0.6+    000910 726  0.2-  0.1-
940402 413  0.1+  0.0     000826 704  0.0   0.3+    000910 726  1.5-  0.2+
940405 413  0.3-  0.8-    000826 557  0.0   0.2-    000910 726  0.0   0.4-
940405 413  0.2-  0.2+    000826 557  0.5-  0.1+    000910 726  0.3+  0.7-
000824 704  0.1-  0.3+    000826 557  0.3-  0.5-    000910 670  0.1+  0.5+
000824 704  0.2-  0.2+    000826 113  0.2+  0.6-    000910 670  0.0   0.4+
000824 704  0.0   0.9+    000826 113  0.4+  0.5-    000910 670  0.2-  0.1-
000824 046  0.3-  0.3-    000826 113  0.6-  0.6+    000910 349  0.1+  0.3+
000824 046  0.0   0.4+    000826 118  0.2-  0.2+    000910 349  0.1+  0.6-
000824 046  0.2-  0.5-    000826 113  0.1-  0.0     000910 349  0.3+  0.0
000824 046  0.0   0.1-    000826 118  0.1+  0.2-    000910 611  0.4-  0.3-
000824 046  0.1-  0.4-    000826 113  0.1-  0.3-    000910 611  0.1-  0.1-
000824 118  0.3+  0.2+    000826 118  0.1-  0.0     000910 611  0.1+  0.1-
000824 118  1.0+  0.6+    000826 104  0.2+  0.4-    000910 611  0.2-  0.4-
000824 118  0.6+  0.6+    000827 104  0.2+  0.4-    000910 611  0.4-  0.1-
000824 557  0.5-  0.9-    000827 104  0.1-  1.8-    000911 726  0.8+  0.1-
000824 557  0.2-  0.3-    000827 104  0.1+  0.2-    000911 726  0.5+  0.1-
000824 557  0.2-  0.5-    000827 595  0.5+  0.2+    000911 726  0.6+  0.4+
000825 557  0.4-  1.2+    000827 595  0.0   0.3-    000911 726  2.2+  1.2-
000825 557  0.0   0.4-    000827 595  0.1+  0.1-    000911 726  1.2+  0.5+
000825 860  0.5+  0.2+    000827 859  2.3-  1.1-    000911 726 (3.1+  1.8-)
000825 860  0.1+  0.9+    000827 859 (0.1-  3.1+)   000911 726  0.8+  0.3+
000825 860  1.1+  0.2-    000827 859  0.2-  0.3+    000911 726  1.0+  0.6+
000825 860  0.5-  0.6-    000827 734  0.3+  0.5+    000911 726  1.1+  0.5-
000825 860  1.2+  0.2-    000827 734  0.1-  0.6+    000911 726  1.0+  0.4+
000825 860  1.0+  0.7+    000827 734  0.0   0.2+    000911 726  1.1+  0.1-
000825 860  0.3-  0.2-    000827 916  0.3-  0.0     000911 726  1.0+  0.2-
000825 860  0.9+  0.4+    000827 916  0.7-  0.6+    000911 642  0.1-  0.9-
000825 860  1.8+  2.8+    000827 916  0.8-  1.0-    000911 642  0.1+  0.2+
000825 658  0.1-  0.6+    000827 670  0.2+  0.7+    000911 642  0.1+  3.0+
000825 658  0.2+  0.6+    000827 670  0.0   0.4+    000911 670  0.3+  0.1-
000825 658  0.2+  0.6+    000827 658  0.4+  0.2-    000911 670  0.1-  0.0
000825 151  0.0   0.6+    000827 658  0.5-  0.1+    000911 670  0.4+  0.0
000825 151  0.1+  0.1-    000827 658  0.1+  0.4-    000912 726  0.0   0.2+
000825 151  0.2+  0.3-    000827 300  0.5-  1.1+    000912 726  0.0   0.5-
000825 151  0.1+  0.0     000827 300  0.6-  1.1-    000912 726  0.1-  0.1-
000825 151  0.1-  0.3-    000829 046  0.1-  0.0     000912 726  0.1-  0.3-
000825 151  0.0   0.1-    000829 046  0.2-  0.1-    000912 726  0.2+  0.5+
000825 611  0.4-  0.3-    000829 046  0.1-  0.1-    000912 642 (2.1+  3.3-)
000825 611  0.3-  0.0     000829 046  0.0   0.0     000912 642 (0.2-  6.4-)
000825 611  0.1-  0.1+    000831 413  0.3+  0.1+    000912 642  1.2-  1.0+
000825 611  0.6-  0.6+    000831 413  0.3+  0.0     000912 118  0.4+  0.2-
000825 611  0.3-  0.2-    000902 349  0.2-  0.0     000912 118  0.3+  0.1+
000825 106  0.4-  0.3-    000902 349  0.7-  0.5+    000912 118  0.2+  0.3-
000825 163  0.2-  0.1-    000902 349  0.3+  0.0     000917 704  0.0   0.2-
000825 587  0.1+  0.3+    000902 349  0.1-  0.3-    000917 704  0.2-  0.6+
000825 163  0.0   0.1-    000902 413  0.0   0.0     000917 704  0.4-  1.1+
000825 587  0.0   0.3+    000903 355  0.4+  0.1-    000917 704  0.3-  1.5+
000825 118  0.1-  0.2-    000903 355  0.8+  0.3+    000917 704  0.1-  1.6+
000825 118  0.2-  0.1+    000903 355  0.2+  0.2+    000919 611  1.6-  1.2-
000825 118  0.4-  0.1+    000905 360  0.1+  0.2-    000919 611  0.4-  0.4-
000825 106  0.4-  0.5+    000905 360  0.0   0.3-    000919 611  1.2+  0.6-
000825 046  0.1+  0.4+    000905 360  0.1+  0.2-    000919 611  0.8-  0.6+
000825 046  0.5-  0.5+    000906 118  0.0   0.1-    000919 611  0.6-  1.2-
000825 046  0.3-  0.6+    000906 118  0.0   0.1-    000921 726  1.0-  0.7+
000825 046  0.5-  0.9+    000906 670  0.1+  0.3+    000921 726  0.4-  0.5+
000825 046  0.2-  0.2+    000906 670  0.2+  0.2+    000921 726  0.8-  0.9+
000825 106  0.3+  0.7+    000906 670  0.2+  0.4+    000921 726  0.9-  0.1+
000825 108  0.6-  0.4+    000907 704  0.3-  0.1+    000921 726  1.0-  0.1+
000825 108  1.1-  2.7-    000907 704  0.1-  0.1+    000921 726  0.8-  0.8+
000825 108  0.2+  1.4+    000907 704  0.1-  0.2+    000921 853  0.1-  0.1-
000826 138  0.1+  0.6-    000907 704  0.0   0.1+    000921 853  0.1-  0.1+
000826 138  0.4+  1.0-    000907 704  0.1+  0.0     000925 118  0.4+  0.1-
000826 860 (1.2+  3.1-)   000908 704  0.3-  0.2-    000925 118  0.2+  0.3-
000826 860  0.2+  0.6+    000908 704  0.4-  0.3+    000925 118  0.6+  0.3-
000826 860  1.4-  1.1-    000908 704  0.4-  0.9+    000928 118  1.3+  0.8-
000826 860  1.4-  1.5-    000908 704  0.1-  0.3+    000928 118  1.1+  0.2-
000826 860  0.7-  0.5+    000908 704  0.1+  0.6+    000928 118  1.1+  0.7-
000826 860  1.8-  1.1+    000909 046  0.1+  0.1+    001205 693  0.5+  0.1+
000826 860  0.1-  0.8-    000909 046  0.2+  0.1+    001205 693  0.4+  0.3+
000826 860  0.5+  0.5+    000909 046  0.2+  0.1+    010223 474  0.2-  0.2-
000826 860  0.1-  1.1+    000909 118  0.3+  0.4+    010223 474  0.2-  0.3-
000826 704  0.3-  0.1+    000909 046  0.2+  0.2+    010223 474  0.1-  0.1+
000826 704  0.1-  0.1+    000909 046  0.1+  0.2+    010303 474  0.0   0.6+
000826 658  0.2-  0.5-    000909 118  0.3+  0.3+    010303 474  0.2-  0.2+
000826 704  0.0   0.3+    000910 726  0.2+  0.4-    010303 474  0.5-  0.2+
000826 658  1.2-  0.8-    000910 726  0.9+  0.0
000826 658  0.5-  0.0     000910 726  0.3+  0.0

Timothy B. Spahr             (C) Copyright 2001 MPC           M.P.E.C. 2001-N06

Read MPEC 2001-N05 Read MPEC 2001-N07


Our Web policy. Index to the CBAT/MPC/ICQ pages.


Valid HTML 4.01!